STARLINK-5686, 55450

Orbit data source: Space-Track

STARLINK-5686, 55450 is a payload satellite owned by SpaceX/Seattle (US) in LEO that was launched on Thu, 02 Feb 2023 UTC via an FALCON 9 launch vehicle from the Air Force Eastern Test Range (AFETR). Payload-class satellites include a variety of spacecraft equipped with specific instruments for various scientific and technological missions. These include communications satellites like Starlink; space stations such as the ISS; scientific satellites like the Hubble; Earth observation satellites from companies like Planet Labs, Umbra, and HawkEye 360; GPS; miniature CubeSats for education and research; and military/defense satellites.

Loading next visibility...
Identifier
55450, 2023-015B
Orbit
LEO
Country
Flag of USUS
Related business
Manufacturer
SpaceX/Seattle
Mission
Operational Commercial Communications
Bus & Motor
STARLINK, Unknown motor
Mass
305 kg wet, ~290 kg dry
Launch date (UTC)
2023-02-02 (3 years ago)
Launch vehicle
FALCON 9
Launch site
Air Force Eastern Test Range (AFETR)
Object type
Payload
Rocket body
Debris
Shape & HBR
Box + 1 Pan, 10.1 m
Radar Cross Section
13.562 m², Large (>1 m²)

Expand to show TLE details & history
Last TLE update: 13 hours ago

TLE from 13 hours ago
0 STARLINK-5686
1 55450U 23015B   25288.60312683 -.00000154  00000-0  36978-5 0  9993
2 55450  43.0058  34.8303 0001278 266.6717  93.3979 15.02538319149860
Epoch: 2025-10-15T14:28Z
TLE epoch observation values (Epoch: 2025-10-15T14:28:30.158Z)
Latitude
-0.00002°
Longitude
153.32979°
Altitude
558.904 km
Speed
7.584 km/s
True Right ascension
02h 19m 19s
True Declination
0° 00' 00"
Sunlit
Object was in full shadow at epoch
Visualization orbit readout
Latitude
Unknown
Longitude
Unknown
Altitude
Unknown
Speed
Unknown
Apparent Right ascension
Unknown
Apparent Declination
Unknown
Sunlit
N/A
Visualization observer readout
Local Sidereal Time
22:02:38
Azimuth
Unknown
Elevation
Unknown
Doppler factor
Unknown
Orbital elements
Apogee altitude
561.882 km
Perigee altitude
560.109 km
Semi-major axis
6,939.132 km
Eccentricity
0.00013
Inclination
43.0058°
RAAN
34.8303°
Arg. of periapsis
266.6717°
True anomaly
93.41252°
Mean anomaly
93.3979°
Eccentric anomaly
93.40521°
Mean motion
3.75479 °/min
Orbital period
95.88 mins
BSTAR
0.0000036978
Loading maneuver chart data...
Computing Atmospheric mass density...
Loading historical data...
Loading historical data...
Loading historical data...
Loading historical data...
Loading historical data...
Loading historical data...
Loading historical data...

Documentation

Showing up to 5 results
|